Weather History for Tillamook, OR

Change the Weather History Date:

Sunday, October 9, 2011

  Actual Average (KMMV) Record (KMMV)
Temperature  
Mean Temperature 56 °F 54 °F  
Max Temperature 60 °F 66 °F 90 °F (1936)
Min Temperature 53 °F 42 °F 26 °F (1960)
Degree Days  
Heating Degree Days 8 11  
Month to date heating degree days 87  
Since 1 July heating degree days 303  
Cooling Degree Days 0 0  
Month to date cooling degree days 0  
Year to date cooling degree days 214  
Growing Degree Days 6 (Base 50)    
Moisture  
Dew Point 56 °F    
Average Humidity 99    
Maximum Humidity 100    
Minimum Humidity 94    
Precipitation  
Precipitation 0.21 in 0.08 in 2.38 in (1955)
Month to date precipitation 0.62  
Year to date precipitation 24.33  
Sea Level Pressure  
Sea Level Pressure 30.03 in    
Wind  
Wind Speed 1 mph (WNW)    
Max Wind Speed 8 mph    
Max Gust Speed -    
Visibility 6 miles    
Events Rain    
T = Trace of Precipitation, MM = Missing Value Source: NWS Daily Summary

Daily Weather History Graph

Daily Weather History Graph

Search for Another Location

Airport:

Trip Planner

Search our weather history database for the weather conditions in past years. The results will help you decide how hot, cold, wet, or windy it might be!

Date:

Astronomy

Oct. 09, 2011 Rise Set
Actual Time 8:23 AM MDT 7:40 PM MDT
Civil Twilight 7:53 AM MDT 8:10 PM MDT
Nautical Twilight 7:19 AM MDT 8:44 PM MDT
Astronomical Twilight 6:45 AM MDT 9:18 PM MDT
Moon 6:23 PM MDT (10/9) 6:09 AM MDT (10/9)
Length of Visible Light 12h 16m
Length of Day
11h 17m
Waxing Gibbous, 95% of the Moon is Illuminated
Oct 9
Waxing Gibbous
Oct 11
Full
Oct 19
Last Quarter
Oct 26
New
Nov 2
First Quarter

Hourly Weather History & Observations

Time (MDT) Temp. Dew Point Humidity Pressure Visibility Wind Dir Wind Speed Gust Speed Precip Events Conditions
12:15 AM 55.4 °F 53.6 °F 94% 30.13 in 7.0 mi East 5.8 mph - 0.05 in Rain Rain
12:35 AM 55.4 °F 53.6 °F 94% 30.13 in 7.0 mi ENE 4.6 mph - 0.07 in Rain Rain
12:55 AM 55.4 °F 53.6 °F 94% 30.13 in 10.0 mi Calm Calm - 0.09 in Rain Light Rain
1:35 AM 53.6 °F 53.6 °F 100% 30.13 in 10.0 mi Calm Calm - 0.02 in   Overcast
1:55 AM 55.4 °F 53.6 °F 94% 30.12 in 10.0 mi Calm Calm - 0.02 in   Overcast
2:15 AM 53.6 °F 53.6 °F 100% 30.12 in 10.0 mi Calm Calm - N/A   Overcast
2:35 AM 53.6 °F 53.6 °F 100% 30.12 in 10.0 mi Calm Calm - N/A Rain Light Rain
2:55 AM 53.6 °F 53.6 °F 100% 30.12 in 4.0 mi Calm Calm - N/A   Light Drizzle
3:15 AM 53.6 °F 53.6 °F 100% 30.11 in 10.0 mi Calm Calm - N/A   Overcast
3:35 AM 53.6 °F 53.6 °F 100% 30.12 in 10.0 mi Calm Calm - N/A   Overcast
3:55 AM 53.6 °F 53.6 °F 100% 30.11 in 10.0 mi Calm Calm - N/A   Overcast
4:15 AM 53.6 °F 53.6 °F 100% 30.11 in 7.0 mi Calm Calm - N/A   Overcast
4:55 AM 53.6 °F 53.6 °F 100% 30.11 in 10.0 mi Calm Calm - N/A   Overcast
5:15 AM 53.6 °F 53.6 °F 100% 30.11 in 4.0 mi Calm Calm - 0.01 in   Drizzle
5:35 AM 53.6 °F 53.6 °F 100% 30.09 in 3.0 mi East 4.6 mph - 0.05 in Rain Rain
5:55 AM 53.6 °F 53.6 °F 100% 30.09 in 7.0 mi Calm Calm - 0.05 in   Overcast
6:15 AM 53.6 °F 53.6 °F 100% 30.09 in 5.0 mi Calm Calm - N/A   Overcast
6:35 AM 53.6 °F 53.6 °F 100% 30.08 in 7.0 mi Calm Calm - 0.01 in   Overcast
6:55 AM 53.6 °F 53.6 °F 100% 30.08 in 10.0 mi Calm Calm - 0.01 in   Overcast
7:15 AM 53.6 °F 53.6 °F 100% 30.08 in 7.0 mi Calm Calm - N/A   Overcast
7:35 AM 53.6 °F 53.6 °F 100% 30.09 in 3.0 mi Calm Calm - N/A   Drizzle
7:55 AM 53.6 °F 53.6 °F 100% 30.08 in 2.5 mi Calm Calm - 0.01 in   Drizzle
8:15 AM 53.6 °F 53.6 °F 100% 30.08 in 2.5 mi Calm Calm - 0.01 in   Drizzle
8:35 AM 53.6 °F 53.6 °F 100% 30.08 in 2.0 mi Calm Calm - 0.01 in   Light Drizzle
8:55 AM 53.6 °F 53.6 °F 100% 30.07 in 4.0 mi Calm Calm - 0.02 in   Overcast
9:35 AM 53.6 °F 53.6 °F 100% 30.08 in 2.0 mi Calm Calm - N/A   Overcast
9:55 AM 55.4 °F 55.4 °F 100% 30.06 in 1.0 mi Calm Calm - N/A   Drizzle
10:15 AM 55.4 °F 55.4 °F 100% 30.06 in 1.5 mi Calm Calm - N/A   Light Drizzle
10:35 AM 55.4 °F 55.4 °F 100% 30.07 in 2.0 mi Calm Calm - N/A   Overcast
10:55 AM 55.4 °F 55.4 °F 100% 30.06 in 1.2 mi Calm Calm - 0.01 in Rain Light Rain
11:15 AM 55.4 °F 55.4 °F 100% 30.06 in 1.2 mi Calm Calm - N/A   Overcast
11:35 AM 55.4 °F 55.4 °F 100% 30.05 in 1.5 mi Calm Calm - N/A   Overcast
11:55 AM 55.4 °F 55.4 °F 100% 30.04 in 4.0 mi Calm Calm - N/A   Overcast
12:15 PM 57.2 °F 57.2 °F 100% 30.03 in 10.0 mi Calm Calm - N/A   Overcast
12:35 PM 59.0 °F 59.0 °F 100% 30.03 in 10.0 mi Calm Calm - N/A   Mostly Cloudy
12:55 PM 59.0 °F 59.0 °F 100% 30.02 in 10.0 mi Calm Calm - N/A   Scattered Clouds
1:15 PM 60.8 °F 59.0 °F 94% 30.01 in 10.0 mi Calm Calm - N/A   Scattered Clouds
1:35 PM 60.8 °F 59.0 °F 94% 30.00 in 10.0 mi Calm Calm - N/A   Mostly Cloudy
1:55 PM 60.8 °F 59.0 °F 94% 29.99 in 10.0 mi NW 3.5 mph - N/A   Overcast
2:15 PM 60.8 °F 59.0 °F 94% 29.99 in 7.0 mi West 5.8 mph - N/A   Overcast
2:35 PM 59.0 °F 59.0 °F 100% 29.98 in 2.0 mi WSW 8.1 mph - N/A   Overcast
2:55 PM 59.0 °F 59.0 °F 100% 29.98 in 5.0 mi WSW 5.8 mph - N/A   Overcast
3:15 PM 59.0 °F 59.0 °F 100% 29.97 in 7.0 mi WSW 3.5 mph - N/A   Overcast
3:35 PM 59.0 °F 59.0 °F 100% 29.97 in 10.0 mi NW 4.6 mph - N/A   Overcast
3:55 PM 59.0 °F 59.0 °F 100% 29.97 in 3.0 mi NW 3.5 mph - N/A Rain Rain
4:15 PM 59.0 °F 59.0 °F 100% 29.96 in 4.0 mi West 3.5 mph - N/A Rain Light Rain
4:35 PM 59.0 °F 59.0 °F 100% 29.96 in 7.0 mi Calm Calm - N/A   Overcast
4:55 PM 59.0 °F 59.0 °F 100% 29.95 in 10.0 mi Calm Calm - N/A   Overcast
5:15 PM 59.0 °F 59.0 °F 100% 29.94 in 7.0 mi Calm Calm - N/A   Overcast
5:35 PM 59.0 °F 59.0 °F 100% 29.94 in 10.0 mi Calm Calm - N/A   Overcast
5:55 PM 59.0 °F 57.2 °F 94% 29.93 in 7.0 mi Calm Calm - N/A   Mostly Cloudy
6:15 PM 59.0 °F 57.2 °F 94% 29.93 in 10.0 mi Calm Calm - N/A   Scattered Clouds
6:35 PM 59.0 °F 59.0 °F 100% 29.92 in 7.0 mi Calm Calm - N/A   Mostly Cloudy
6:55 PM 59.0 °F 59.0 °F 100% 29.91 in 7.0 mi Calm Calm - N/A   Overcast
7:15 PM 59.0 °F 59.0 °F 100% 29.91 in 5.0 mi Calm Calm - N/A   Overcast
7:35 PM 59.0 °F 59.0 °F 100% 29.89 in 7.0 mi Calm Calm - N/A   Overcast
7:55 PM 57.2 °F 57.2 °F 100% 29.88 in 7.0 mi Calm Calm - N/A   Overcast
8:15 PM 57.2 °F 57.2 °F 100% 29.88 in 7.0 mi Calm Calm - N/A   Mostly Cloudy
8:35 PM 57.2 °F 57.2 °F 100% 29.88 in 7.0 mi Calm Calm - N/A   Mostly Cloudy
8:55 PM 57.2 °F 57.2 °F 100% 29.88 in 7.0 mi Calm Calm - N/A   Overcast
9:15 PM 57.2 °F 57.2 °F 100% 29.87 in 7.0 mi Calm Calm - N/A   Overcast
9:35 PM 57.2 °F 57.2 °F 100% 29.86 in 5.0 mi Calm Calm - N/A   Overcast
9:55 PM 57.2 °F 57.2 °F 100% 29.85 in 4.0 mi Calm Calm - N/A   Overcast
10:15 PM 57.2 °F 57.2 °F 100% 29.84 in 5.0 mi Calm Calm - N/A   Mostly Cloudy
10:35 PM 57.2 °F 57.2 °F 100% 29.83 in 4.0 mi Calm Calm - N/A   Light Drizzle
10:55 PM 57.2 °F 57.2 °F 100% 29.83 in 5.0 mi Calm Calm - N/A   Overcast
11:15 PM 57.2 °F 57.2 °F 100% 29.83 in 5.0 mi Calm Calm - N/A   Mostly Cloudy
11:35 PM 55.4 °F 55.4 °F 100% 29.83 in 5.0 mi Calm Calm - N/A   Mostly Cloudy
11:55 PM 55.4 °F 55.4 °F 100% 29.83 in 1.0 mi Calm Calm - N/A   Mostly Cloudy